OpenBCM V1.13 (Linux)

Packet Radio Mailbox

DB0FHN

[JN59NK Nuernberg]

 Login: GUEST





  
LU9DCE > KEP      18.11.19 20:34l 250 Lines 12384 Bytes #999 (0) @ WW
BID : 902_LU9DCE
Read: DF7EAV DJ6UX GUEST
Subj: TLE 18 11
Path: DB0FHN<DB0BLO<DB0ERF<IZ3LSV<IR1UAW<I0OJJ<I0OJJ<EA2RCF<LU9DCE
Sent: 191118/1731Z 902@LU9DCE.TOR.BA.ARG.SOAM LinBPQ6.0.19

>From lu9dce%lu9dce.tor.ba.arg.soam@i0ojj.ampr.org Mon Nov 18 18:40:17 2019
Received: from i0ojj.ampr.org by i0ojj.ampr.org (JNOS2.0m-uro) with SMTP
	id AA36338 ; Mon, 18 Nov 2019 18:40:17 +0100
Message-Id: <902_LU9DCE@i0ojj.bbs>
>From: lu9dce@lu9dce.tor.ba.arg.soam
X-JNOS-User-Port: Telnet   (i0ojj @ 44.134.32.240)  -> Sending message

            __    _  _  ___  ____   ___  ____    ____  ____  ____
           (  )  / )( \/ _ \(    \ / __)(  __)  (  _ \(  _ \/ ___)
           / (_/\) \/ (\__  )) D (( (__  ) _)    ) _ ( ) _ (\___ \
           \____/\____/(___/(____/ \___)(____)  (____/(____/(____/
               ESTACION DE PACKET RADIO - BUENOS AIRES (GF05OM)
                   BOLETINES INFORMATIVOS PROGRAMADOS (BIP)
                  SLACKWARE LINUX - HELLOCODELINUX@GMAIL.COM
+----------------------------------------------------------------------------+
OSCAR 7
1  7530U 74089B   19322.53676112 -.00000032  00000-0  79969-4 0  9991
2  7530 101.7678 288.7466 0012519  52.5251  57.2769 12.53640782 59677
OSCAR 11 (UoSAT 2)
1 14781U 84021B   19322.51439972  .00000078  00000-0  15637-4 0  9994
2 14781  97.6016 339.9268 0008717 168.1348 192.0074 14.83120904921418
OSCAR 19 (LUSAT)
1 20442U 90005G   19321.89172758 +.00000008 +00000-0 +19098-4 0  9998
2 20442 098.6652 263.7377 0012793 063.2141 297.0350 14.32938106558117
EYESAT A
1 22825U 93061C   19322.51647026  .00000001  00000-0  18265-4 0  9993
2 22825  98.9155 314.7326 0007375 275.1036  84.9304 14.30071349363798
ITAMSAT
1 22826U 93061D   19321.92290665 -.00000011 +00000-0 +13639-4 0  9993
2 22826 098.9094 314.0973 0007905 263.9521 096.0759 14.30405573363669
RADIO ROSTO
1 23439U 94085A   19321.88622932 -.00000036 +00000-0 +18125-3 0  9993
2 23439 064.8161 230.0037 0145488 083.4281 278.3181 11.27568658025051
JAS 2
1 24278U 96046B   19321.87467939 -.00000036 +00000-0 -11892-6 0  9995
2 24278 098.5607 094.8114 0349996 205.3730 152.9861 13.53094870148136
TECHSAT 1B
1 25397U 98043D   19321.84761033 +.00000002 +00000-0 +20002-4 0  9998
2 25397 098.7039 260.2365 0001021 011.4839 348.6362 14.23674379109309
ISS (ZARYA)
1 25544U 98067A   19322.48856435  .00000476  00000-0  16356-4 0  9992
2 25544  51.6452 316.2568 0006314 295.4330 202.2065 15.50012091199196
PCSAT
1 26931U 01043C   19321.49363681 -.00000042  00000-0  15675-4 0  9990
2 26931  67.0511 331.9544 0007446 265.7556  94.2694 14.30558846946680
SAUDISAT 1C
1 27607U 02058C   19322.37716049 -.00000018  00000-0  18312-4 0  9990
2 27607  64.5547 302.7745 0072251 226.6839 132.8226 14.75589349909564
CUTE-1
1 27844U 03031E   19322.53156427  .00000047  00000-0  41041-4 0  9997
2 27844  98.6844 328.4631 0009052 313.1950  46.8471 14.22205889850016
CUBESAT XI 4
1 27848U 03031J   19322.49699041  .00000030  00000-0  33383-4 0  9992
2 27848  98.6917 328.9590 0009130 326.2323  33.8272 14.21797389849851
MOZHAYETS 4
1 27939U 03042A   19322.51189632  .00000111  00000-0  28495-4 0  9996
2 27939  98.0631  95.5526 0011802 307.0654  52.9472 14.66818360862949
CUBESAT XI 5
1 28895U 05043F   19322.36472159  .00000139  00000-0  35476-4 0  9990
2 28895  97.9810 100.0688 0015910 226.6182 133.3697 14.63711526749811
CUTE-1.7+APD II
1 32785U 08021C   19321.82834309 +.00000214 +00000-0 +28625-4 0  9993
2 32785 097.5580 314.4357 0014442 115.6944 244.5767 14.88374788626246
DELFI C3
1 32789U 08021G   19321.86162279 +.00001176 +00000-0 +81949-4 0  9997
2 32789 097.4472 006.8128 0011128 330.8335 029.2270 15.07261376629789
SEEDS
1 32791U 08021J   19321.52258238 +.00000228 +00000-0 +28457-4 0  9996
2 32791 097.5323 320.2437 0014906 092.0845 268.2081 14.90911524626650
YUBELEINY
1 32953U 08025A   19322.40295705  .00000021  00000-0  75656-4 0  9992
2 32953  82.5074  49.7882 0019905 154.5030 205.7035 12.43092168521286
PRISM (HITOMI)
1 33493U 09002B   19321.82170689 +.00001126 +00000-0 +10372-3 0  9996
2 33493 098.1266 248.5660 0016248 043.8830 316.3678 14.96807564587895
KKS-1 (KISEKI)
1 33499U 09002H   19322.53235827  .00000103  00000-0  23225-4 0  9993
2 33499  98.3364 166.0364 0010386  81.1511 279.0873 14.75480045581765
SWISSCUBE
1 35932U 09051B   19321.71437403 +.00000133 +00000-0 +41010-4 0  9999
2 35932 098.5996 132.2775 0008539 063.4943 296.7128 14.56330108538867
BEESAT
1 35933U 09051C   19322.46403981  .00000109  00000-0  35490-4 0  9995
2 35933  98.6010 134.8692 0006844  73.8787 286.3163 14.56413715539120
ITUPSAT 1
1 35935U 09051E   19321.71644816 +.00000102 +00000-0 +34612-4 0  9996
2 35935 098.6119 134.3235 0009162 073.2762 286.9440 14.55567485538725
XIWANG-1 (HOPE-1)
1 36122U 09072B   19321.74497248 -.00000040 +00000-0 +54589-5 0  9994
2 36122 100.0797 317.0159 0007829 359.6986 000.4092 13.16351998476882
TISAT 1
1 36799U 10035E   19321.87277591 +.00000352 +00000-0 +41548-4 0  9991
2 36799 098.1736 119.2690 0011238 310.7215 049.3026 14.91204452507246
JUGNU
1 37839U 11058B   19322.51633802  .00000292  00000-0  13812-4 0  9992
2 37839  19.9599 128.0177 0018912 211.8886 193.0313 14.12664292418892
SRMSAT
1 37841U 11058D   19321.87500491 +.00000303 +00000-0 +21574-4 0  9997
2 37841 019.9704 191.8367 0011865 068.9178 024.9759 14.10643466418116
M-CUBED/EXP-1 PRIME
1 37855U 11061F   19321.85118000 +.00002049 +00000-0 +10910-3 0  9995
2 37855 101.7227 295.6115 0172575 345.7210 013.9158 15.05788762439202
HORYU 2
1 38340U 12025D   19322.40363410  .00000167  00000-0  32386-4 0  9996
2 38340  98.3120   5.4407 0011389   4.1252 356.0048 14.75775533403683
STRAND 1
1 39090U 13009E   19322.54676840  .00000019  00000-0  21800-4 0  9996
2 39090  98.4718 165.8377 0008872 188.1170 171.9873 14.35105512352315
SOMP
1 39134U 13015E   19321.90620589 +.00001303 +00000-0 +67772-4 0  9995
2 39134 064.8633 247.1770 0037919 277.9929 081.6897 15.20505699363355
BEESAT 3
1 39135U 13015F   19321.90336872 +.00001033 +00000-0 +59975-4 0  9991
2 39135 064.8669 267.6476 0040289 283.1398 076.5234 15.17735806362952
BEESAT 2
1 39136U 13015G   19321.86670679 +.00001077 +00000-0 +63487-4 0  9994
2 39136 064.8686 272.0351 0030301 288.2489 071.5340 15.17150151362862
CUBEBUG 1
1 39153U 13018D   19322.49776860  .00000207  00000-0  33832-4 0  9990
2 39153  97.9820  59.7945 0018122  65.7650 294.5453 14.80625681354421
ZACUBE
1 39417U 13066B   19322.51866897  .00000193  00000-0  30708-4 0  9992
2 39417  97.5618 327.4277 0057485 252.4976 106.9950 14.81179370323669
TRITON 1
1 39427U 13066M   19322.49075245  .00000231  00000-0  44540-4 0  9991
2 39427  97.6967 290.5879 0114696  36.8567 324.0453 14.67906905320758
GOMX 1
1 39430U 13066Q   19322.52995858  .00000165  00000-0  38483-4 0  9995
2 39430  97.7654 269.1595 0151911 131.9761 229.4492 14.59309269318891
HUMSAT D
1 39433U 13066T   19321.76160600 +.00000226 +00000-0 +27226-4 0  9993
2 39433 097.5358 002.9124 0031571 150.9196 209.3790 14.92302425324570
CUBEBUG 2
1 39440U 13066AA  19322.49883486  .00000214  00000-0  36911-4 0  9994
2 39440  97.6126 311.9938 0079081 309.2992  50.1224 14.75917837322515
FUNCUBE 1
1 39444U 13066AE  19322.50181015  .00000229  00000-0  34531-4 0  9991
2 39444  97.5584 329.4975 0056676 245.5513 113.9782 14.82011385322560
UWE-3
1 39446U 13066AG  19321.90284890 +.00000191 +00000-0 +32172-4 0  9998
2 39446 097.5864 318.5918 0068554 283.6930 075.6657 14.78451773321167
SPROUT
1 39770U 14029E   19322.54109302  .00000819  00000-0  96459-4 0  9998
2 39770  97.8922  64.9092 0008050 309.2135  50.8385 14.87507638297557
UNISAT 6
1 40012U 14033C   19321.66738749 +.00000157 +00000-0 +30766-4 0  9993
2 40012 097.7343 181.5571 0057687 328.6947 031.0831 14.74033195291074
DUCHIFAT 1
1 40021U 14033M   19321.85057816 +.00000306 +00000-0 +37066-4 0  9999
2 40021 097.9290 246.9696 0011465 269.3970 090.5934 14.90738058294213
QB50P1
1 40025U 14033R   19321.84433627 +.00000272 +00000-0 +34927-4 0  9995
2 40025 097.9072 241.2736 0011049 280.9282 079.0692 14.89021507293451
CHUBUSAT 1
1 40300U 14070C   19322.29590359  .00000641  00000-0  30753-4 0  9991
2 40300  97.3133  32.5167 0018634 238.7797 161.4539 15.22252140279230
NUDT-PHONESAT
1 40900U 15049B   19322.53687389  .00001998  00000-0  87113-4 0  9999
2 40900  97.4360 330.4095 0013386  15.7954 104.0655 15.23285122230928
ZDPS 2A
1 40901U 15049C   19322.50462641  .00000710  00000-0  38256-4 0  9994
2 40901  97.4615 326.1523 0014480  36.5472 114.4320 15.17932338230411
ZDPS 2B
1 40902U 15049D   19322.53911441  .00001264  00000-0  65707-4 0  9991
2 40902  97.4579 323.5607 0014521  34.1714  82.4717 15.17822644230393
XW-2A
1 40903U 15049E   19322.53429625  .00001573  00000-0  38441-4 0  9998
2 40903  97.3191   6.0428 0012328 318.3099 147.7150 15.42325932233804
KAITUO 1A
1 40904U 15049F   19322.53111497  .00000780  00000-0  44574-4 0  9997
2 40904  97.4714 321.9728 0015892  42.2573  71.5182 15.15509610230148
OBJECT G
1 40905U 15049G   19322.52336260  .00000562  00000-0  34107-4 0  9993
2 40905  97.4769 319.3599 0016827  38.2189  78.8102 15.14393964230002
XW-2C
1 40906U 15049H   19322.50711987  .00000389  00000-0  23767-4 0  9992
2 40906  97.4724 322.1053 0015759  34.8030 117.1121 15.15824451230145
XW-2D
1 40907U 15049J   19322.52529557  .00000766  00000-0  43220-4 0  9990
2 40907  97.4699 321.8063 0015191  31.7361  87.5809 15.16028957230160
LILACSAT 2
1 40908U 15049K   19322.55194288  .00000366  00000-0  23766-4 0  9992
2 40908  97.4841 320.4779 0017000  38.6954  78.9758 15.13892762229934
XW-2F
1 40910U 15049M   19322.53721028  .00001119  00000-0  58981-4 0  9995
2 40910  97.4654 324.0562 0015412  24.1058  92.9090 15.17540179230190
XW-2B
1 40911U 15049N   19322.50498252  .00000454  00000-0  27087-4 0  9997
2 40911  97.4723 322.4614 0015004  32.8351 118.6834 15.15955184230058
